Time,TemperatureF,DewpointF,PressureIn,WindDirection,WindDirectionDegrees,WindSpeedMPH,WindSpeedGustMPH,Humidity,HourlyPrecipIn,Conditions,Clouds,dailyrainin,SoftwareType,DateUTC
2013-02-20 00:01:00,22.4,19.9,29.95,WNW,284,4.0,4.0,90,0.00,,,0.17,Wunderground v.1.15,2013-02-20 05:01:00,
2013-02-20 00:04:00,22.1,19.9,29.95,West,271,4.0,4.0,91,0.00,,,0.00,Wunderground v.1.15,2013-02-20 05:04:00,
2013-02-20 00:09:00,21.9,19.9,29.95,WNW,286,4.0,6.0,92,0.00,,,0.00,Wunderground v.1.15,2013-02-20 05:09:00,
2013-02-20 00:11:00,21.9,19.9,29.95,WNW,301,3.0,4.0,92,0.00,,,0.00,Wunderground v.1.15,2013-02-20 05:11:00,
2013-02-20 00:13:00,21.9,19.9,29.95,SW,233,4.0,7.0,92,0.00,,,0.00,Wunderground v.1.15,2013-02-20 05:13:00,
2013-02-20 00:18:00,22.0,20.0,29.95,West,279,4.0,7.0,92,0.00,,,0.00,Wunderground v.1.15,2013-02-20 05:18:00,
2013-02-20 00:24:00,22.0,19.8,29.95,WNW,291,3.0,9.0,91,0.00,,,0.00,Wunderground v.1.15,2013-02-20 05:24:00,
2013-02-20 00:30:00,21.8,19.6,29.96,WSW,255,4.0,9.0,91,0.00,,,0.00,Wunderground v.1.15,2013-02-20 05:30:00,
2013-02-20 00:36:00,21.7,19.7,29.96,WSW,242,4.0,8.0,92,0.00,,,0.00,Wunderground v.1.15,2013-02-20 05:36:00,
2013-02-20 00:42:00,21.7,19.7,29.96,SSW,202,4.0,5.0,92,0.00,,,0.00,Wunderground v.1.15,2013-02-20 05:42:00,
2013-02-20 00:48:00,21.9,19.4,29.96,WSW,247,4.0,7.0,90,0.00,,,0.00,Wunderground v.1.15,2013-02-20 05:48:00,
2013-02-20 00:54:00,22.2,18.9,29.95,SW,220,4.0,5.0,87,0.00,,,0.00,Wunderground v.1.15,2013-02-20 05:54:00,
2013-02-20 01:00:00,22.2,19.2,29.96,West,281,4.0,8.0,88,0.00,,,0.00,Wunderground v.1.15,2013-02-20 06:00:00,
2013-02-20 01:05:00,21.4,19.2,29.97,WNW,286,5.0,9.0,91,0.00,,,0.00,Wunderground v.1.15,2013-02-20 06:05:00,
2013-02-20 01:11:00,21.1,19.1,29.97,WSW,242,4.0,7.0,92,0.00,,,0.00,Wunderground v.1.15,2013-02-20 06:11:00,
2013-02-20 01:17:00,21.1,18.9,29.97,WSW,244,4.0,26.0,91,0.00,,,0.00,Wunderground v.1.15,2013-02-20 06:17:00,
2013-02-20 01:22:00,21.2,18.5,29.98,SW,225,5.0,9.0,89,0.00,,,0.00,Wunderground v.1.15,2013-02-20 06:22:00,
2013-02-20 01:28:00,21.4,17.0,29.97,WSW,241,6.0,18.0,83,0.00,,,0.00,Wunderground v.1.15,2013-02-20 06:28:00,
2013-02-20 01:34:00,21.6,15.8,29.97,WNW,298,6.0,7.0,78,0.00,,,0.00,Wunderground v.1.15,2013-02-20 06:34:00,
2013-02-20 01:40:00,21.6,15.5,29.98,NW,311,7.0,10.0,77,0.00,,,0.00,Wunderground v.1.15,2013-02-20 06:40:00,
2013-02-20 01:45:00,21.6,15.5,29.97,West,269,7.0,10.0,77,0.00,,,0.00,Wunderground v.1.15,2013-02-20 06:45:00,
2013-02-20 01:51:00,21.5,15.7,29.98,NW,310,6.0,7.0,78,0.00,,,0.00,Wunderground v.1.15,2013-02-20 06:51:00,
2013-02-20 01:57:00,21.5,16.0,29.98,WNW,290,4.0,7.0,79,0.00,,,0.00,Wunderground v.1.15,2013-02-20 06:57:00,
2013-02-20 02:03:00,21.4,15.6,29.98,NW,323,3.0,8.0,78,0.00,,,0.00,Wunderground v.1.15,2013-02-20 07:03:00,
2013-02-20 02:09:00,21.3,15.5,29.98,NNW,335,5.0,8.0,78,0.00,,,0.00,Wunderground v.1.15,2013-02-20 07:09:00,
2013-02-20 02:15:00,21.2,15.7,29.98,West,273,5.0,7.0,79,0.00,,,0.00,Wunderground v.1.15,2013-02-20 07:15:00,
2013-02-20 02:21:00,21.1,15.6,29.98,WSW,245,4.0,6.0,79,0.00,,,0.00,Wunderground v.1.15,2013-02-20 07:21:00,
2013-02-20 02:26:00,21.0,14.9,29.97,WSW,242,5.0,8.0,77,0.00,,,0.00,Wunderground v.1.15,2013-02-20 07:26:00,
2013-02-20 02:32:00,20.9,15.4,29.98,WNW,292,6.0,7.0,79,0.00,,,0.00,Wunderground v.1.15,2013-02-20 07:32:00,
2013-02-20 02:38:00,20.7,14.9,29.98,WSW,252,5.0,11.0,78,0.00,,,0.00,Wunderground v.1.15,2013-02-20 07:38:00,
2013-02-20 02:44:00,20.6,15.4,29.98,WSW,239,5.0,10.0,80,0.00,,,0.00,Wunderground v.1.15,2013-02-20 07:44:00,
2013-02-20 02:50:00,20.5,15.3,29.98,NW,323,5.0,7.0,80,0.00,,,0.00,Wunderground v.1.15,2013-02-20 07:50:00,
2013-02-20 02:56:00,20.4,15.5,29.98,SW,236,5.0,10.0,81,0.00,,,0.00,Wunderground v.1.15,2013-02-20 07:56:00,
2013-02-20 03:05:00,20.4,15.2,29.98,West,265,4.0,8.0,80,0.00,,,0.00,Wunderground v.1.15,2013-02-20 08:05:00,
2013-02-20 03:11:00,20.4,14.6,29.98,NW,315,5.0,7.0,78,0.00,,,0.00,Wunderground v.1.15,2013-02-20 08:11:00,
2013-02-20 03:17:00,20.4,14.9,29.98,WSW,257,5.0,8.0,79,0.00,,,0.00,Wunderground v.1.15,2013-02-20 08:17:00,
2013-02-20 03:23:00,20.3,14.5,29.98,WSW,240,4.0,9.0,78,0.00,,,0.00,Wunderground v.1.15,2013-02-20 08:23:00,
2013-02-20 03:29:00,20.3,14.8,29.98,West,260,5.0,9.0,79,0.00,,,0.00,Wunderground v.1.15,2013-02-20 08:29:00,
2013-02-20 03:35:00,20.3,15.1,29.98,NNW,348,4.0,7.0,80,0.00,,,0.00,Wunderground v.1.15,2013-02-20 08:35:00,
2013-02-20 03:41:00,20.2,15.0,29.98,WNW,296,5.0,8.0,80,0.00,,,0.00,Wunderground v.1.15,2013-02-20 08:41:00,
2013-02-20 03:47:00,19.7,15.9,29.99,NNW,329,6.0,10.0,85,0.00,,,0.00,Wunderground v.1.15,2013-02-20 08:47:00,
2013-02-20 03:53:00,19.2,16.2,29.99,WNW,288,6.0,7.0,88,0.00,,,0.00,Wunderground v.1.15,2013-02-20 08:53:00,
2013-02-20 03:59:00,19.1,16.1,29.99,NW,317,4.0,7.0,88,0.00,,,0.00,Wunderground v.1.15,2013-02-20 08:59:00,
2013-02-20 04:04:00,19.1,16.1,29.99,WSW,252,4.0,7.0,88,0.00,,,0.00,Wunderground v.1.15,2013-02-20 09:04:00,
2013-02-20 04:10:00,19.2,15.4,30.00,West,260,4.0,7.0,85,0.00,,,0.00,Wunderground v.1.15,2013-02-20 09:10:00,
2013-02-20 04:16:00,19.3,14.7,30.00,WNW,300,5.0,7.0,82,0.00,,,0.00,Wunderground v.1.15,2013-02-20 09:16:00,
2013-02-20 04:22:00,19.4,13.9,30.00,West,281,5.0,7.0,79,0.00,,,0.00,Wunderground v.1.15,2013-02-20 09:22:00,
2013-02-20 04:28:00,19.4,13.4,30.00,NW,313,6.0,7.0,77,0.00,,,0.00,Wunderground v.1.15,2013-02-20 09:28:00,
2013-02-20 04:34:00,19.4,13.4,30.00,WNW,284,4.0,7.0,77,0.00,,,0.00,Wunderground v.1.15,2013-02-20 09:34:00,
2013-02-20 04:40:00,19.4,13.4,30.01,WSW,242,4.0,7.0,77,0.00,,,0.00,Wunderground v.1.15,2013-02-20 09:40:00,
2013-02-20 04:45:00,19.5,13.2,30.01,West,264,4.0,7.0,76,0.00,,,0.00,Wunderground v.1.15,2013-02-20 09:45:00,
2013-02-20 04:51:00,19.4,13.1,30.01,NNW,339,4.0,7.0,76,0.00,,,0.00,Wunderground v.1.15,2013-02-20 09:51:00,
2013-02-20 04:57:00,19.5,13.2,30.01,West,267,4.0,7.0,76,0.00,,,0.00,Wunderground v.1.15,2013-02-20 09:57:00,
2013-02-20 05:03:00,19.4,13.1,30.01,West,275,4.0,7.0,76,0.00,,,0.00,Wunderground v.1.15,2013-02-20 10:03:00,
2013-02-20 05:09:00,19.3,13.0,30.01,West,265,4.0,7.0,76,0.00,,,0.00,Wunderground v.1.15,2013-02-20 10:09:00,
2013-02-20 05:15:00,19.3,13.3,30.02,WNW,302,4.0,8.0,77,0.00,,,0.00,Wunderground v.1.15,2013-02-20 10:15:00,
2013-02-20 05:21:00,19.2,13.5,30.02,West,271,4.0,7.0,78,0.00,,,0.00,Wunderground v.1.15,2013-02-20 10:21:00,
2013-02-20 05:26:00,19.3,13.6,30.02,WSW,255,3.0,7.0,78,0.00,,,0.00,Wunderground v.1.15,2013-02-20 10:26:00,
2013-02-20 05:32:00,19.3,13.9,30.02,WNW,294,4.0,7.0,79,0.00,,,0.00,Wunderground v.1.15,2013-02-20 10:32:00,
2013-02-20 05:38:00,19.3,13.9,30.02,West,266,4.0,10.0,79,0.00,,,0.00,Wunderground v.1.15,2013-02-20 10:38:00,
2013-02-20 05:44:00,19.2,13.8,30.02,WNW,303,6.0,9.0,79,0.00,,,0.00,Wunderground v.1.15,2013-02-20 10:44:00,
2013-02-20 05:50:00,19.2,13.8,30.03,West,267,5.0,5.0,79,0.00,,,0.00,Wunderground v.1.15,2013-02-20 10:50:00,
2013-02-20 05:56:00,19.2,14.0,30.03,WNW,293,5.0,9.0,80,0.00,,,0.00,Wunderground v.1.15,2013-02-20 10:56:00,
2013-02-20 06:02:00,19.2,14.3,30.03,SW,232,5.0,7.0,81,0.00,,,0.00,Wunderground v.1.15,2013-02-20 11:02:00,
2013-02-20 06:07:00,19.1,14.5,30.03,West,273,4.0,8.0,82,0.00,,,0.00,Wunderground v.1.15,2013-02-20 11:07:00,
2013-02-20 06:13:00,18.8,15.0,30.04,North,355,4.0,7.0,85,0.00,,,0.00,Wunderground v.1.15,2013-02-20 11:13:00,
2013-02-20 06:19:00,18.7,15.2,30.04,WNW,301,4.0,7.0,86,0.00,,,0.00,Wunderground v.1.15,2013-02-20 11:19:00,
2013-02-20 06:25:00,18.4,15.4,30.04,West,269,4.0,7.0,88,0.00,,,0.00,Wunderground v.1.15,2013-02-20 11:25:00,
2013-02-20 06:31:00,18.2,15.8,30.05,NW,309,4.0,8.0,90,0.00,,,0.00,Wunderground v.1.15,2013-02-20 11:31:00,
2013-02-20 06:37:00,18.0,15.6,30.05,NNW,344,4.0,8.0,90,0.00,,,0.00,Wunderground v.1.15,2013-02-20 11:37:00,
2013-02-20 06:43:00,17.9,15.7,30.05,WNW,289,4.0,7.0,91,0.00,,,0.00,Wunderground v.1.15,2013-02-20 11:43:00,
2013-02-20 06:49:00,17.9,16.0,30.05,WNW,288,3.0,7.0,92,0.00,,,0.00,Wunderground v.1.15,2013-02-20 11:49:00,
2013-02-20 06:54:00,17.9,15.7,30.05,West,275,3.0,7.0,91,0.00,,,0.00,Wunderground v.1.15,2013-02-20 11:54:00,
2013-02-20 07:00:00,18.0,15.6,30.05,SW,228,4.0,4.0,90,0.00,,,0.00,Wunderground v.1.15,2013-02-20 12:00:00,
2013-02-20 07:06:00,18.2,15.2,30.05,NW,311,4.0,7.0,88,0.00,,,0.00,Wunderground v.1.15,2013-02-20 12:06:00,
2013-02-20 07:12:00,18.4,15.2,30.06,NW,306,4.0,7.0,87,0.00,,,0.00,Wunderground v.1.15,2013-02-20 12:12:00,
2013-02-20 07:18:00,18.4,14.6,30.06,SW,214,5.0,10.0,85,0.00,,,0.00,Wunderground v.1.15,2013-02-20 12:18:00,
2013-02-20 07:24:00,18.5,14.7,30.07,West,270,5.0,7.0,85,0.00,,,0.00,Wunderground v.1.15,2013-02-20 12:24:00,
2013-02-20 07:30:00,18.5,14.5,30.07,West,278,5.0,5.0,84,0.00,,,0.00,Wunderground v.1.15,2013-02-20 12:30:00,
2013-02-20 07:35:00,18.5,14.5,30.07,WSW,256,5.0,7.0,84,0.00,,,0.00,Wunderground v.1.15,2013-02-20 12:35:00,
2013-02-20 07:41:00,18.6,14.3,30.07,West,269,4.0,7.0,83,0.00,,,0.00,Wunderground v.1.15,2013-02-20 12:41:00,
2013-02-20 07:47:00,18.7,14.1,30.07,South,188,5.0,7.0,82,0.00,,,0.00,Wunderground v.1.15,2013-02-20 12:47:00,
2013-02-20 07:53:00,18.7,13.6,30.07,NW,312,5.0,9.0,80,0.00,,,0.00,Wunderground v.1.15,2013-02-20 12:53:00,
2013-02-20 07:59:00,18.6,13.5,30.08,NW,313,6.0,11.0,80,0.00,,,0.00,Wunderground v.1.15,2013-02-20 12:59:00,
2013-02-20 08:05:00,18.5,13.4,30.08,WNW,299,6.0,7.0,80,0.00,,,0.00,Wunderground v.1.15,2013-02-20 13:05:00,
2013-02-20 08:11:00,18.5,13.4,30.09,West,265,6.0,7.0,80,0.00,,,0.00,Wunderground v.1.15,2013-02-20 13:11:00,
2013-02-20 08:17:00,18.5,13.6,30.09,West,270,5.0,7.0,81,0.00,,,0.00,Wunderground v.1.15,2013-02-20 13:17:00,
2013-02-20 08:22:00,18.5,13.6,30.09,WSW,254,5.0,9.0,81,0.00,,,0.00,Wunderground v.1.15,2013-02-20 13:22:00,
2013-02-20 08:28:00,18.4,13.5,30.10,West,259,6.0,10.0,81,0.00,,,0.00,Wunderground v.1.15,2013-02-20 13:28:00,
2013-02-20 08:34:00,18.4,13.8,30.09,WNW,285,5.0,10.0,82,0.00,,,0.00,Wunderground v.1.15,2013-02-20 13:34:00,
2013-02-20 08:40:00,18.2,13.9,30.09,NW,309,5.0,7.0,83,0.00,,,0.00,Wunderground v.1.15,2013-02-20 13:40:00,
2013-02-20 08:46:00,18.2,13.6,30.10,NW,312,5.0,8.0,82,0.00,,,0.00,Wunderground v.1.15,2013-02-20 13:46:00,
2013-02-20 08:52:00,18.2,13.6,30.09,West,274,5.0,9.0,82,0.00,,,0.00,Wunderground v.1.15,2013-02-20 13:52:00,
2013-02-20 08:58:00,18.2,13.3,30.09,West,269,5.0,10.0,81,0.00,,,0.00,Wunderground v.1.15,2013-02-20 13:58:00,
2013-02-20 09:04:00,18.3,13.7,30.09,West,266,4.0,10.0,82,0.00,,,0.00,Wunderground v.1.15,2013-02-20 14:04:00,
2013-02-20 09:10:00,18.4,14.1,30.09,WSW,256,4.0,4.0,83,0.00,,,0.00,Wunderground v.1.15,2013-02-20 14:10:00,
2013-02-20 09:16:00,18.6,14.0,30.10,West,267,4.0,13.0,82,0.00,,,0.00,Wunderground v.1.15,2013-02-20 14:16:00,
2013-02-20 09:22:00,18.6,14.0,30.09,WSW,246,5.0,7.0,82,0.00,,,0.00,Wunderground v.1.15,2013-02-20 14:22:00,
2013-02-20 09:28:00,18.5,14.2,30.10,WSW,243,5.0,7.0,83,0.00,,,0.00,Wunderground v.1.15,2013-02-20 14:28:00,
2013-02-20 09:34:00,18.6,14.3,30.10,West,263,5.0,7.0,83,0.00,,,0.00,Wunderground v.1.15,2013-02-20 14:34:00,
2013-02-20 09:40:00,18.7,14.4,30.10,West,266,5.0,10.0,83,0.00,,,0.00,Wunderground v.1.15,2013-02-20 14:40:00,
2013-02-20 09:46:00,18.6,14.6,30.10,NW,316,5.0,10.0,84,0.00,,,0.00,Wunderground v.1.15,2013-02-20 14:46:00,
2013-02-20 09:51:00,18.7,14.7,30.10,West,259,5.0,7.0,84,0.00,,,0.00,Wunderground v.1.15,2013-02-20 14:51:00,
2013-02-20 09:57:00,18.6,14.3,30.10,WSW,240,4.0,10.0,83,0.00,,,0.00,Wunderground v.1.15,2013-02-20 14:57:00,
2013-02-20 10:03:00,18.8,14.8,30.10,West,278,5.0,8.0,84,0.00,,,0.00,Wunderground v.1.15,2013-02-20 15:03:00,
2013-02-20 10:09:00,18.9,14.9,30.11,WSW,251,4.0,8.0,84,0.00,,,0.00,Wunderground v.1.15,2013-02-20 15:09:00,
2013-02-20 10:15:00,18.9,14.6,30.11,WNW,287,5.0,10.0,83,0.00,,,0.00,Wunderground v.1.15,2013-02-20 15:15:00,
2013-02-20 10:21:00,18.9,14.6,30.11,West,267,5.0,7.0,83,0.00,,,0.00,Wunderground v.1.15,2013-02-20 15:21:00,
2013-02-20 10:27:00,18.9,14.3,30.11,WNW,285,6.0,9.0,82,0.00,,,0.00,Wunderground v.1.15,2013-02-20 15:27:00,
2013-02-20 10:33:00,19.1,14.8,30.11,West,263,6.0,7.0,83,0.00,,,0.00,Wunderground v.1.15,2013-02-20 15:33:00,
2013-02-20 10:39:00,19.2,14.6,30.11,West,281,5.0,7.0,82,0.00,,,0.00,Wunderground v.1.15,2013-02-20 15:39:00,
2013-02-20 10:45:00,19.2,14.6,30.11,West,274,5.0,7.0,82,0.00,,,0.00,Wunderground v.1.15,2013-02-20 15:45:00,
2013-02-20 10:50:00,19.2,14.9,30.11,NW,306,4.0,7.0,83,0.00,,,0.00,Wunderground v.1.15,2013-02-20 15:50:00,
2013-02-20 10:56:00,19.0,15.0,30.11,WNW,301,4.0,7.0,84,0.00,,,0.00,Wunderground v.1.15,2013-02-20 15:56:00,
2013-02-20 11:02:00,18.7,15.2,30.11,WNW,297,4.0,7.0,86,0.00,,,0.00,Wunderground v.1.15,2013-02-20 16:02:00,
2013-02-20 11:08:00,18.1,15.1,30.11,West,263,5.0,7.0,88,0.00,,,0.00,Wunderground v.1.15,2013-02-20 16:08:00,
2013-02-20 11:14:00,18.0,15.3,30.11,WSW,248,5.0,8.0,89,0.00,,,0.00,Wunderground v.1.15,2013-02-20 16:14:00,
2013-02-20 11:20:00,18.4,15.7,30.11,NW,319,5.0,5.0,89,0.00,,,0.00,Wunderground v.1.15,2013-02-20 16:20:00,
2013-02-20 11:26:00,18.8,15.6,30.11,NW,311,4.0,8.0,87,0.00,,,0.00,Wunderground v.1.15,2013-02-20 16:26:00,
2013-02-20 11:31:00,19.3,15.5,30.11,SW,221,4.0,7.0,85,0.00,,,0.00,Wunderground v.1.15,2013-02-20 16:31:00,
2013-02-20 11:37:00,19.5,14.6,30.11,West,271,5.0,11.0,81,0.00,,,0.00,Wunderground v.1.15,2013-02-20 16:37:00,
2013-02-20 11:43:00,19.6,14.1,30.11,WSW,257,6.0,7.0,79,0.00,,,0.00,Wunderground v.1.15,2013-02-20 16:43:00,
2013-02-20 11:49:00,19.8,14.0,30.11,WSW,258,6.0,11.0,78,0.00,,,0.00,Wunderground v.1.15,2013-02-20 16:49:00,
2013-02-20 11:55:00,20.1,14.0,30.11,West,275,6.0,9.0,77,0.00,,,0.00,Wunderground v.1.15,2013-02-20 16:55:00,
2013-02-20 12:01:00,20.1,13.7,30.11,West,269,5.0,8.0,76,0.00,,,0.00,Wunderground v.1.15,2013-02-20 17:01:00,
2013-02-20 12:07:00,20.4,13.7,30.11,West,261,6.0,12.0,75,0.00,,,0.00,Wunderground v.1.15,2013-02-20 17:07:00,
2013-02-20 12:12:00,20.5,13.2,30.11,WSW,252,5.0,9.0,73,0.00,,,0.00,Wunderground v.1.15,2013-02-20 17:12:00,
2013-02-20 12:18:00,19.9,14.7,30.11,NNW,338,6.0,9.0,80,0.00,,,0.00,Wunderground v.1.15,2013-02-20 17:18:00,
2013-02-20 12:24:00,19.7,14.8,30.11,NW,320,5.0,7.0,81,0.00,,,0.00,Wunderground v.1.15,2013-02-20 17:24:00,
2013-02-20 12:30:00,19.5,14.9,30.11,NW,304,5.0,9.0,82,0.00,,,0.00,Wunderground v.1.15,2013-02-20 17:30:00,
2013-02-20 12:36:00,19.3,14.7,30.11,West,267,5.0,9.0,82,0.00,,,0.00,Wunderground v.1.15,2013-02-20 17:36:00,
2013-02-20 12:42:00,19.4,14.8,30.12,WNW,284,5.0,7.0,82,0.00,,,0.00,Wunderground v.1.15,2013-02-20 17:42:00,
2013-02-20 12:48:00,19.4,14.2,30.12,WNW,298,5.0,9.0,80,0.00,,,0.00,Wunderground v.1.15,2013-02-20 17:48:00,
2013-02-20 12:54:00,19.5,14.3,30.12,West,265,5.0,8.0,80,0.00,,,0.00,Wunderground v.1.15,2013-02-20 17:54:00,
2013-02-20 12:59:00,19.7,14.5,30.12,WSW,255,5.0,8.0,80,0.00,,,0.00,Wunderground v.1.15,2013-02-20 17:59:00,
2013-02-20 13:05:00,19.8,14.3,30.12,WNW,288,5.0,7.0,79,0.00,,,0.00,Wunderground v.1.15,2013-02-20 18:05:00,
2013-02-20 13:11:00,19.7,14.2,30.12,WNW,298,5.0,7.0,79,0.00,,,0.00,Wunderground v.1.15,2013-02-20 18:11:00,
2013-02-20 13:17:00,20.0,14.5,30.12,West,277,4.0,8.0,79,0.00,,,0.00,Wunderground v.1.15,2013-02-20 18:17:00,
2013-02-20 13:23:00,19.9,14.1,30.12,West,275,5.0,7.0,78,0.00,,,0.00,Wunderground v.1.15,2013-02-20 18:23:00,
2013-02-20 13:29:00,19.9,13.9,30.12,WSW,257,5.0,8.0,77,0.00,,,0.00,Wunderground v.1.15,2013-02-20 18:29:00,
2013-02-20 13:35:00,19.8,13.8,30.12,West,261,6.0,9.0,77,0.00,,,0.00,Wunderground v.1.15,2013-02-20 18:35:00,
2013-02-20 13:41:00,19.9,13.6,30.12,WNW,288,6.0,7.0,76,0.00,,,0.00,Wunderground v.1.15,2013-02-20 18:41:00,
2013-02-20 13:47:00,20.2,13.5,30.12,West,261,6.0,7.0,75,0.00,,,0.00,Wunderground v.1.15,2013-02-20 18:47:00,
2013-02-20 13:52:00,20.3,13.6,30.12,NW,313,5.0,7.0,75,0.00,,,0.00,Wunderground v.1.15,2013-02-20 18:52:00,
2013-02-20 13:58:00,20.3,13.6,30.12,West,275,4.0,8.0,75,0.00,,,0.00,Wunderground v.1.15,2013-02-20 18:58:00,
2013-02-20 14:04:00,20.2,13.5,30.12,NW,323,5.0,7.0,75,0.00,,,0.00,Wunderground v.1.15,2013-02-20 19:04:00,
2013-02-20 14:10:00,20.0,13.6,30.13,West,265,5.0,7.0,76,0.00,,,0.00,Wunderground v.1.15,2013-02-20 19:10:00,
2013-02-20 14:16:00,19.8,13.5,30.13,NW,317,6.0,18.0,76,0.00,,,0.00,Wunderground v.1.15,2013-02-20 19:16:00,
2013-02-20 14:22:00,19.8,12.8,30.13,West,279,7.0,10.0,74,0.00,,,0.00,Wunderground v.1.15,2013-02-20 19:22:00,
2013-02-20 14:28:00,20.1,13.4,30.13,West,265,5.0,10.0,75,0.00,,,0.00,Wunderground v.1.15,2013-02-20 19:28:00,
2013-02-20 14:33:00,20.0,13.0,30.14,WNW,285,5.0,7.0,74,0.00,,,0.00,Wunderground v.1.15,2013-02-20 19:33:00,
2013-02-20 14:38:00,20.1,12.8,30.14,WNW,294,5.0,7.0,73,0.00,,,0.00,Wunderground v.1.15,2013-02-20 19:38:00,
2013-02-20 14:44:00,20.1,13.4,30.14,West,278,5.0,7.0,75,0.00,,,0.00,Wunderground v.1.15,2013-02-20 19:44:00,
2013-02-20 14:50:00,19.7,13.1,30.14,NNW,333,5.0,8.0,75,0.00,,,0.00,Wunderground v.1.15,2013-02-20 19:50:00,
2013-02-20 14:56:00,19.6,13.0,30.14,WSW,240,6.0,10.0,75,0.00,,,0.00,Wunderground v.1.15,2013-02-20 19:56:00,
2013-02-20 15:02:00,19.5,12.9,30.15,WNW,300,5.0,7.0,75,0.00,,,0.00,Wunderground v.1.15,2013-02-20 20:02:00,
2013-02-20 15:08:00,19.6,13.3,30.16,WNW,294,4.0,8.0,76,0.00,,,0.00,Wunderground v.1.15,2013-02-20 20:08:00,
2013-02-20 15:14:00,19.2,13.2,30.16,NW,320,5.0,11.0,77,0.00,,,0.00,Wunderground v.1.15,2013-02-20 20:14:00,
2013-02-20 15:19:00,19.0,13.0,30.16,NNW,331,5.0,11.0,77,0.00,,,0.00,Wunderground v.1.15,2013-02-20 20:19:00,
2013-02-20 15:25:00,19.1,12.8,30.17,WNW,292,5.0,8.0,76,0.00,,,0.00,Wunderground v.1.15,2013-02-20 20:25:00,
2013-02-20 15:31:00,19.1,12.5,30.17,WNW,285,5.0,7.0,75,0.00,,,0.00,Wunderground v.1.15,2013-02-20 20:31:00,
2013-02-20 15:37:00,19.2,12.6,30.17,WNW,284,5.0,7.0,75,0.00,,,0.00,Wunderground v.1.15,2013-02-20 20:37:00,
2013-02-20 15:43:00,19.3,12.7,30.17,West,271,5.0,14.0,75,0.00,,,0.00,Wunderground v.1.15,2013-02-20 20:43:00,
2013-02-20 15:49:00,19.3,13.3,30.17,NW,323,5.0,14.0,77,0.00,,,0.00,Wunderground v.1.15,2013-02-20 20:49:00,
2013-02-20 15:55:00,19.0,13.6,30.18,North,355,5.0,9.0,79,0.00,,,0.00,Wunderground v.1.15,2013-02-20 20:55:00,
2013-02-20 16:00:00,18.9,12.9,30.18,WNW,285,5.0,5.0,77,0.00,,,0.00,Wunderground v.1.15,2013-02-20 21:00:00,
2013-02-20 16:06:00,19.0,13.0,30.18,WNW,300,5.0,7.0,77,0.00,,,0.00,Wunderground v.1.15,2013-02-20 21:06:00,
2013-02-20 16:12:00,18.8,13.1,30.19,WSW,254,5.0,8.0,78,0.00,,,0.00,Wunderground v.1.15,2013-02-20 21:12:00,
2013-02-20 16:18:00,18.7,12.4,30.19,NNW,329,5.0,8.0,76,0.00,,,0.00,Wunderground v.1.15,2013-02-20 21:18:00,
2013-02-20 16:24:00,18.9,12.3,30.20,WSW,251,4.0,7.0,75,0.00,,,0.00,Wunderground v.1.15,2013-02-20 21:24:00,
2013-02-20 16:30:00,18.8,11.9,30.19,NW,315,5.0,5.0,74,0.00,,,0.00,Wunderground v.1.15,2013-02-20 21:30:00,
2013-02-20 16:35:00,18.5,11.6,30.20,North,360,5.0,7.0,74,0.00,,,0.00,Wunderground v.1.15,2013-02-20 21:35:00,
2013-02-20 16:41:00,18.2,11.6,30.20,NW,316,6.0,7.0,75,0.00,,,0.00,Wunderground v.1.15,2013-02-20 21:41:00,
2013-02-20 16:47:00,18.2,11.6,30.20,North,360,5.0,7.0,75,0.00,,,0.00,Wunderground v.1.15,2013-02-20 21:47:00,
2013-02-20 16:53:00,18.2,11.3,30.21,WNW,288,5.0,7.0,74,0.00,,,0.00,Wunderground v.1.15,2013-02-20 21:53:00,
2013-02-20 16:59:00,18.2,11.3,30.21,WNW,297,5.0,12.0,74,0.00,,,0.00,Wunderground v.1.15,2013-02-20 21:59:00,
2013-02-20 17:05:00,18.2,11.3,30.21,WNW,301,5.0,10.0,74,0.00,,,0.00,Wunderground v.1.15,2013-02-20 22:05:00,
2013-02-20 17:10:00,18.2,11.3,30.22,WNW,302,4.0,7.0,74,0.00,,,0.00,Wunderground v.1.15,2013-02-20 22:10:00,
2013-02-20 17:15:00,18.2,11.3,30.22,West,275,4.0,11.0,74,0.00,,,0.00,Wunderground v.1.15,2013-02-20 22:15:00,
2013-02-20 17:21:00,18.2,11.6,30.22,NW,313,4.0,7.0,75,0.00,,,0.00,Wunderground v.1.15,2013-02-20 22:21:00,
2013-02-20 17:27:00,18.0,11.4,30.22,West,263,4.0,7.0,75,0.00,,,0.00,Wunderground v.1.15,2013-02-20 22:27:00,
2013-02-20 17:32:00,18.0,11.7,30.22,NNW,327,4.0,7.0,76,0.00,,,0.00,Wunderground v.1.15,2013-02-20 22:32:00,
2013-02-20 17:38:00,18.0,11.4,30.22,WSW,258,4.0,7.0,75,0.00,,,0.00,Wunderground v.1.15,2013-02-20 22:38:00,
2013-02-20 17:44:00,17.8,10.9,30.23,WSW,242,5.0,8.0,74,0.00,,,0.00,Wunderground v.1.15,2013-02-20 22:44:00,
2013-02-20 17:50:00,17.8,11.2,30.23,WNW,296,5.0,8.0,75,0.00,,,0.00,Wunderground v.1.15,2013-02-20 22:50:00,
2013-02-20 17:55:00,17.8,11.2,30.24,WNW,294,4.0,8.0,75,0.00,,,0.00,Wunderground v.1.15,2013-02-20 22:55:00,
2013-02-20 18:01:00,17.8,10.9,30.23,WNW,290,4.0,7.0,74,0.00,,,0.00,Wunderground v.1.15,2013-02-20 23:01:00,
2013-02-20 18:07:00,17.8,11.2,30.24,North,350,4.0,7.0,75,0.00,,,0.00,Wunderground v.1.15,2013-02-20 23:07:00,
2013-02-20 18:12:00,17.8,10.9,30.24,West,275,4.0,7.0,74,0.00,,,0.00,Wunderground v.1.15,2013-02-20 23:12:00,
2013-02-20 18:17:00,17.8,10.9,30.24,WNW,289,4.0,7.0,74,0.00,,,0.00,Wunderground v.1.15,2013-02-20 23:17:00,
2013-02-20 18:23:00,17.7,10.8,30.25,West,273,3.0,7.0,74,0.00,,,0.00,Wunderground v.1.15,2013-02-20 23:23:00,
2013-02-20 18:28:00,17.7,10.8,30.25,NW,319,3.0,7.0,74,0.00,,,0.00,Wunderground v.1.15,2013-02-20 23:28:00,
2013-02-20 18:34:00,17.7,10.2,30.25,NW,319,3.0,5.0,72,0.00,,,0.00,Wunderground v.1.15,2013-02-20 23:34:00,
2013-02-20 18:40:00,17.6,10.1,30.25,WNW,286,3.0,3.0,72,0.00,,,0.00,Wunderground v.1.15,2013-02-20 23:40:00,
2013-02-20 18:46:00,17.6,9.8,30.25,NW,325,3.0,6.0,71,0.00,,,0.00,Wunderground v.1.15,2013-02-20 23:46:00,
2013-02-20 18:52:00,17.5,9.4,30.25,NW,312,4.0,4.0,70,0.00,,,0.00,Wunderground v.1.15,2013-02-20 23:52:00,
2013-02-20 18:58:00,17.5,9.7,30.25,NW,316,3.0,5.0,71,0.00,,,0.00,Wunderground v.1.15,2013-02-20 23:58:00,
2013-02-20 19:04:00,17.3,9.8,30.25,WNW,285,3.0,3.0,72,0.00,,,0.00,Wunderground v.1.15,2013-02-21 00:04:00,
2013-02-20 19:10:00,17.3,9.2,30.25,WNW,302,3.0,3.0,70,0.00,,,0.00,Wunderground v.1.15,2013-02-21 00:10:00,
2013-02-20 19:16:00,17.2,9.1,30.25,NW,307,4.0,13.0,70,0.00,,,0.00,Wunderground v.1.15,2013-02-21 00:16:00,
2013-02-20 19:22:00,17.2,8.8,30.24,West,281,4.0,6.0,69,0.00,,,0.00,Wunderground v.1.15,2013-02-21 00:22:00,
2013-02-20 19:28:00,17.1,9.0,30.25,West,279,4.0,7.0,70,0.00,,,0.00,Wunderground v.1.15,2013-02-21 00:28:00,
2013-02-20 19:34:00,17.0,9.2,30.25,WSW,243,3.0,6.0,71,0.00,,,0.00,Wunderground v.1.15,2013-02-21 00:34:00,
2013-02-20 19:40:00,17.1,9.0,30.25,West,261,3.0,3.0,70,0.00,,,0.00,Wunderground v.1.15,2013-02-21 00:40:00,
2013-02-20 19:46:00,17.1,9.0,30.25,NW,319,4.0,7.0,70,0.00,,,0.00,Wunderground v.1.15,2013-02-21 00:46:00,
2013-02-20 19:52:00,17.1,9.0,30.25,WSW,250,4.0,6.0,70,0.00,,,0.00,Wunderground v.1.15,2013-02-21 00:52:00,
2013-02-20 19:58:00,17.1,9.0,30.25,WNW,300,5.0,7.0,70,0.00,,,0.00,Wunderground v.1.15,2013-02-21 00:58:00,
2013-02-20 20:03:00,17.1,9.3,30.25,WNW,286,4.0,6.0,71,0.00,,,0.00,Wunderground v.1.15,2013-02-21 01:03:00,
2013-02-20 20:09:00,17.1,9.3,30.25,NNW,336,3.0,6.0,71,0.00,,,0.00,Wunderground v.1.15,2013-02-21 01:09:00,
2013-02-20 20:15:00,17.1,9.6,30.25,West,261,3.0,6.0,72,0.00,,,0.00,Wunderground v.1.15,2013-02-21 01:15:00,
2013-02-20 20:21:00,17.1,9.6,30.26,WNW,301,3.0,7.0,72,0.00,,,0.00,Wunderground v.1.15,2013-02-21 01:21:00,
2013-02-20 20:27:00,17.1,9.6,30.26,WSW,256,4.0,9.0,72,0.00,,,0.00,Wunderground v.1.15,2013-02-21 01:27:00,
2013-02-20 20:33:00,17.1,9.6,30.26,West,271,3.0,6.0,72,0.00,,,0.00,Wunderground v.1.15,2013-02-21 01:33:00,
2013-02-20 20:39:00,17.0,9.2,30.26,WSW,257,3.0,6.0,71,0.00,,,0.00,Wunderground v.1.15,2013-02-21 01:39:00,
2013-02-20 20:45:00,17.1,9.6,30.26,West,267,3.0,6.0,72,0.00,,,0.00,Wunderground v.1.15,2013-02-21 01:45:00,
2013-02-20 20:51:00,17.1,9.6,30.26,West,261,3.0,6.0,72,0.00,,,0.00,Wunderground v.1.15,2013-02-21 01:51:00,
2013-02-20 20:57:00,17.1,9.3,30.26,WSW,255,4.0,6.0,71,0.00,,,0.00,Wunderground v.1.15,2013-02-21 01:57:00,
2013-02-20 21:02:00,17.1,9.3,30.26,NNW,342,4.0,6.0,71,0.00,,,0.00,Wunderground v.1.15,2013-02-21 02:02:00,
2013-02-20 21:08:00,17.1,9.6,30.26,West,280,4.0,6.0,72,0.00,,,0.00,Wunderground v.1.15,2013-02-21 02:08:00,
2013-02-20 21:14:00,17.1,9.9,30.26,West,275,3.0,6.0,73,0.00,,,0.00,Wunderground v.1.15,2013-02-21 02:14:00,
2013-02-20 21:20:00,17.2,10.0,30.27,West,263,3.0,6.0,73,0.00,,,0.00,Wunderground v.1.15,2013-02-21 02:20:00,
2013-02-20 21:26:00,17.2,9.7,30.27,WNW,298,3.0,6.0,72,0.00,,,0.00,Wunderground v.1.15,2013-02-21 02:26:00,
2013-02-20 21:32:00,17.2,9.7,30.27,WNW,298,3.0,6.0,72,0.00,,,0.00,Wunderground v.1.15,2013-02-21 02:32:00,
2013-02-20 21:37:00,17.2,9.7,30.27,West,275,4.0,6.0,72,0.00,,,0.00,Wunderground v.1.15,2013-02-21 02:37:00,
2013-02-20 21:42:00,17.1,9.9,30.27,WNW,300,3.0,6.0,73,0.00,,,0.00,Wunderground v.1.15,2013-02-21 02:42:00,
2013-02-20 21:48:00,17.1,10.2,30.27,WNW,289,3.0,6.0,74,0.00,,,0.00,Wunderground v.1.15,2013-02-21 02:48:00,
2013-02-20 21:54:00,17.2,10.3,30.27,West,275,3.0,6.0,74,0.00,,,0.00,Wunderground v.1.15,2013-02-21 02:54:00,
2013-02-20 22:00:00,17.1,10.2,30.27,WSW,252,3.0,3.0,74,0.00,,,0.00,Wunderground v.1.15,2013-02-21 03:00:00,
2013-02-20 22:06:00,17.2,10.3,30.27,WNW,296,3.0,6.0,74,0.00,,,0.00,Wunderground v.1.15,2013-02-21 03:06:00,
2013-02-20 22:12:00,17.2,10.6,30.27,West,274,3.0,6.0,75,0.00,,,0.00,Wunderground v.1.15,2013-02-21 03:12:00,
2013-02-20 22:18:00,17.1,10.5,30.27,SW,235,3.0,6.0,75,0.00,,,0.00,Wunderground v.1.15,2013-02-21 03:18:00,
2013-02-20 22:24:00,17.2,10.6,30.27,NNW,327,2.0,6.0,75,0.00,,,0.00,Wunderground v.1.15,2013-02-21 03:24:00,
2013-02-20 22:29:00,17.1,10.5,30.27,NNW,340,3.0,6.0,75,0.00,,,0.00,Wunderground v.1.15,2013-02-21 03:29:00,
2013-02-20 22:36:00,17.1,10.5,30.27,WNW,292,3.0,6.0,75,0.00,,,0.00,Wunderground v.1.15,2013-02-21 03:36:00,
2013-02-20 22:41:00,17.1,10.5,30.27,WNW,288,3.0,6.0,75,0.00,,,0.00,Wunderground v.1.15,2013-02-21 03:41:00,
2013-02-20 22:46:00,17.1,10.5,30.27,NW,308,3.0,8.0,75,0.00,,,0.00,Wunderground v.1.15,2013-02-21 03:46:00,
2013-02-20 22:52:00,17.1,10.5,30.26,WNW,298,3.0,6.0,75,0.00,,,0.00,Wunderground v.1.15,2013-02-21 03:52:00,
2013-02-20 22:58:00,17.1,10.5,30.26,WNW,302,2.0,6.0,75,0.00,,,0.00,Wunderground v.1.15,2013-02-21 03:58:00,
2013-02-20 23:04:00,17.0,10.4,30.26,NW,308,3.0,7.0,75,0.00,,,0.00,Wunderground v.1.15,2013-02-21 04:04:00,
2013-02-20 23:10:00,17.0,10.7,30.26,West,276,2.0,6.0,76,0.00,,,0.00,Wunderground v.1.15,2013-02-21 04:10:00,
2013-02-20 23:16:00,17.0,10.7,30.26,WNW,291,3.0,7.0,76,0.00,,,0.00,Wunderground v.1.15,2013-02-21 04:16:00,
2013-02-20 23:22:00,17.0,10.7,30.25,WNW,297,3.0,6.0,76,0.00,,,0.00,Wunderground v.1.15,2013-02-21 04:22:00,
2013-02-20 23:28:00,17.0,10.7,30.25,WNW,290,3.0,6.0,76,0.00,,,0.00,Wunderground v.1.15,2013-02-21 04:28:00,
2013-02-20 23:33:00,17.0,10.7,30.25,WNW,283,3.0,6.0,76,0.00,,,0.00,Wunderground v.1.15,2013-02-21 04:33:00,
2013-02-20 23:39:00,16.9,10.6,30.25,West,277,3.0,6.0,76,0.00,,,0.00,Wunderground v.1.15,2013-02-21 04:39:00,
2013-02-20 23:45:00,17.0,10.7,30.25,WNW,293,2.0,6.0,76,0.00,,,0.00,Wunderground v.1.15,2013-02-21 04:45:00,
2013-02-20 23:51:00,17.0,10.7,30.25,West,281,3.0,6.0,76,0.00,,,0.00,Wunderground v.1.15,2013-02-21 04:51:00,
2013-02-20 23:57:00,16.9,10.6,30.25,WNW,291,3.0,6.0,76,0.00,,,0.00,Wunderground v.1.15,2013-02-21 04:57:00,